Wind_Speed
81 83 82 76 73 68 61 59 53 55 52 47 41 36 37 39 50 57 57 53 50 48 42 37 37 39 43 45 45 45 42 41 38 34 35 38 35 33 31 32 32 34 34 36
85 89 88 79 76 70 68 65 63 61 60 53 51 44 39 37 43 53 57 59 53 49 46 43 41 42 43 44 45 44 43 43 40 39 40 40 37 36 37 35 35 38 39 40
89 90 87 84 75 69 69 70 67 65 62 60 58 54 43 39 36 42 52 56 59 54 52 48 45 45 45 45 44 46 47 46 42 37 37 36 36 36 37 38 40 41 42 44
96 98 97 82 77 74 71 72 69 72 71 66 63 58 48 43 40 35 36 46 55 56 53 49 47 44 47 46 46 47 46 43 41 38 37 37 36 38 40 41 43 44 44 47
103 101 93 84 78 77 75 75 80 77 77 74 61 59 54 55 49 40 35 33 43 51 56 54 50 48 45 44 47 49 48 47 45 42 41 42 42 40 39 42 44 46 47 49
102 101 92 89 88 89 87 83 83 82 77 70 64 60 63 61 46 41 37 34 31 32 41 52 55 53 53 50 51 49 52 51 47 46 47 47 47 45 45 46 46 47 49 49
100 99 99 99 99 97 92 96 88 82 80 75 73 72 61 53 49 49 48 42 41 40 36 38 43 50 53 56 55 57 55 51 50 50 52 52 50 50 51 50 47 51 44 40
101 102 107 103 102 100 98 93 87 82 77 72 69 63 58 54 54 55 53 49 48 45 43 41 37 34 34 39 49 58 57 58 58 57 57 58 57 54 55 53 43 38 37 36
106 104 108 105 107 100 95 92 86 80 77 72 63 59 55 53 63 62 52 51 55 51 47 43 42 39 36 34 32 35 39 46 50 55 58 54 51 46 39 34 35 37 35 34
98 99 107 108 102 96 94 87 81 77 74 73 64 62 64 69 65 63 57 54 54 54 50 49 47 45 44 41 38 36 36 35 37 40 41 42 42 40 38 36 37 38 38 39
89 90 93 93 84 78 83 85 81 79 76 76 72 69 68 68 65 63 66 60 59 56 52 50 50 48 49 48 47 45 44 43 44 45 46 47 47 46 43 43 41 42 43 44
92 92 90 87 79 73 71 78 80 81 83 83 80 76 72 74 69 66 66 66 64 60 56 53 51 49 50 51 49 47 48 49 50 51 51 51 48 47 48 49 48 49 49 52
94 91 87 88 88 79 74 78 85 86 86 88 84 80 78 76 76 72 68 69 67 66 60 57 57 55 54 54 54 53 53 54 53 55 54 55 55 56 56 54 55 55 55 56
106 103 94 91 91 93 87 85 87 90 91 87 88 87 86 82 81 80 75 72 72 68 67 66 64 62 59 60 61 61 61 60 57 58 58 56 57 57 58 60 60 58 59 61
106 107 100 99 89 84 86 89 88 92 92 91 93 93 91 88 88 86 83 77 74 74 74 73 71 68 68 65 65 65 63 63 62 64 63 62 62 62 63 65 65 65 65 66
95 97 100 95 90 85 82 83 88 91 90 94 98 97 97 91 91 90 89 84 80 78 76 79 77 75 75 72 70 67 66 65 64 66 66 66 65 66 68 70 70 71 70 70
76 87 93 93 94 92 87 84 81 84 90 93 95 97 96 96 98 97 93 87 85 82 80 80 80 82 82 79 77 75 75 73 71 70 71 71 72 72 73 73 75 75 75 77
43 65 85 92 93 93 91 87 81 82 85 89 94 97 98 103 102 98 95 90 89 88 86 86 84 83 83 83 82 82 81 80 78 78 79 78 77 77 78 80 80 79 79 80
27 41 59 76 88 91 93 91 87 80 79 84 92 96 96 99 103 99 94 92 95 92 92 91 90 90 88 88 86 85 85 85 85 85 84 85 85 86 87 86 86 87 86 86
20 30 39 53 69 80 86 87 87 82 79 80 84 90 94 96 97 95 99 99 98 96 95 93 94 94 94 93 93 92 92 91 92 93 93 92 92 94 93 94 92 89 88 88
18 20 32 43 54 65 77 84 84 83 82 81 81 84 89 94 95 96 96 98 97 98 99 100 99 98 98 98 97 97 97 99 96 95 95 93 91 92 95 96 94 89 91 91
26 20 16 29 41 56 66 76 82 84 84 82 80 81 83 86 88 92 92 94 99 101 105 105 102 103 104 102 101 101 101 101 102 102 103 102 100 101 99 100 100 100 99 96
30 26 25 27 30 40 53 67 78 83 85 84 83 82 81 76 56 78 87 91 91 90 89 98 104 105 103 106 106 106 107 108 111 112 109 109 111 108 103 103 98 98 99 97
41 38 40 38 36 39 38 45 64 82 87 88 90 94 89 96 94 92 90 92 93 94 100 98 93 87 82 89 97 96 100 104 105 101 101 97 99 101 93 93 90 92 98 101
48 51 52 50 51 51 53 55 54 60 73 92 97 97 98 98 97 95 99 98 92 81 79 92 91 87 89 87 86 92 95 95 93 96 99 91 88 88 91 95 100 101 100 103
55 60 64 61 64 63 65 66 68 66 66 70 81 89 92 96 98 102 104 104 98 96 102 100 96 93 96 100 98 102 101 101 106 107 106 107 109 109 109 109 103 105 102 106
61 63 64 70 70 71 76 77 79 82 76 78 82 85 91 94 97 96 97 100 99 95 96 100 98 97 96 98 102 105 112 114 112 111 111 111 112 110 108 110 111 110 111 111
Wind_Direction
222 222 222 219 219 221 223 224 224 230 234 232 226 215 218 220 220 221 222 221 221 223 224 223 218 213 214 217 218 223 226 230 236 240 240 241 244 249 253 255 260 268 275 283
219 220 223 224 220 218 217 221 220 225 230 226 230 219 219 221 222 223 223 222 221 222 223 225 225 217 213 217 220 224 229 234 239 239 239 242 245 251 255 259 264 268 273 278
216 222 224 222 224 226 222 220 221 224 229 229 228 227 218 227 229 227 227 224 223 223 225 224 226 223 217 217 219 227 231 233 235 236 241 248 251 255 260 264 266 269 274 279
216 219 222 220 220 221 221 220 221 222 225 229 225 229 223 223 230 231 230 225 225 224 226 229 230 231 230 226 224 228 233 236 239 240 243 247 252 255 256 261 267 273 277 281
214 219 221 221 219 221 220 219 220 219 225 228 228 231 228 224 220 226 232 226 225 228 227 229 233 232 235 234 233 234 237 237 241 245 249 251 254 257 260 262 268 274 279 284
215 216 218 217 216 217 217 217 219 220 223 227 225 226 228 226 218 222 226 234 236 234 232 231 231 235 240 239 241 242 243 244 247 250 252 255 258 263 265 267 273 279 282 284
213 215 215 216 216 215 215 218 219 217 219 218 219 220 224 231 218 221 221 229 230 234 232 233 232 231 234 239 243 244 244 248 250 252 255 258 260 262 266 270 273 279 275 274
212 214 215 215 216 216 217 218 219 217 219 221 225 228 231 236 233 229 224 223 227 227 232 234 235 234 233 237 241 247 250 251 252 254 256 258 261 264 265 275 272 263 267 274
211 211 218 219 217 216 217 217 219 219 215 219 220 223 227 230 234 233 222 219 222 225 228 227 230 230 229 232 237 242 244 247 250 254 257 261 264 264 260 259 265 269 272 280
214 215 219 219 217 217 215 217 219 219 218 218 219 218 218 224 226 230 228 217 220 223 225 228 230 232 234 234 231 233 236 238 244 246 248 250 253 254 256 261 266 269 273 278
218 222 223 225 222 220 217 216 216 217 217 219 220 222 222 225 227 230 235 229 218 221 225 228 231 231 232 236 236 238 238 238 236 238 244 249 252 255 261 265 271 274 276 277
216 218 220 225 225 222 216 217 217 216 214 217 220 220 221 222 225 225 229 233 229 222 222 226 232 237 239 240 242 243 244 246 247 248 250 252 257 260 262 265 269 270 269 270
218 219 219 220 224 220 213 210 214 218 218 216 218 221 223 224 227 229 228 229 234 232 227 227 230 235 241 246 248 248 248 249 249 251 253 257 260 262 265 268 269 273 275 275
217 217 215 217 218 220 216 212 212 216 217 218 218 222 226 226 228 229 231 229 231 236 237 236 236 236 238 242 246 249 251 253 256 259 258 259 263 265 265 267 269 271 272 273
214 215 215 216 214 215 218 216 215 217 216 215 219 221 224 227 230 230 231 232 232 231 237 243 243 242 241 244 247 248 250 253 255 259 261 262 264 265 267 270 271 272 274 277
219 216 214 212 211 215 216 219 218 219 218 215 218 220 223 224 229 232 234 233 234 236 235 237 243 248 249 249 249 251 253 255 257 260 262 265 266 268 270 272 275 277 278 279
227 221 220 215 212 212 213 215 218 220 221 220 218 221 223 225 229 231 233 234 235 237 238 240 240 241 246 251 254 255 256 257 259 262 265 266 267 270 273 274 274 275 277 281
228 225 222 221 216 212 211 212 215 219 220 221 222 222 222 225 229 231 233 235 237 238 240 241 243 245 247 248 250 253 257 261 262 263 266 268 271 272 274 275 277 279 280 280
210 219 219 220 219 215 211 210 212 215 220 223 223 223 225 228 229 232 234 236 240 240 241 243 245 246 248 249 251 253 256 258 262 265 268 269 270 272 274 277 278 278 278 278
190 208 210 213 216 217 215 212 210 211 218 223 225 226 227 230 234 234 235 236 239 242 245 248 249 250 252 254 256 258 260 263 264 264 265 267 268 271 273 273 275 275 276 277
135 179 202 204 206 209 212 213 211 210 214 220 224 227 230 231 233 237 240 241 241 242 245 247 250 252 254 255 258 260 262 263 263 265 266 268 269 270 272 274 276 276 276 279
107 111 139 186 198 205 207 209 211 212 214 218 223 228 231 234 237 238 240 247 243 244 246 248 250 252 254 255 256 258 260 262 264 265 267 268 269 270 272 273 276 278 278 282
137 132 142 140 168 191 201 206 209 212 214 218 223 228 231 232 222 237 237 241 245 245 247 248 250 252 254 256 257 259 260 262 263 264 267 268 269 271 272 274 276 277 278 282
166 163 166 161 162 163 176 194 208 210 211 215 220 225 226 229 229 238 240 242 236 239 247 246 248 251 253 258 257 259 260 260 263 266 268 270 269 270 270 275 278 281 281 282
187 178 178 177 174 176 179 184 190 203 212 214 218 222 227 230 230 231 238 241 241 236 236 245 247 246 248 248 253 251 254 256 261 266 269 266 266 268 271 277 281 280 278 276
195 194 186 184 186 187 189 192 195 200 204 210 216 220 222 227 232 235 235 239 241 238 242 249 251 250 252 253 251 250 252 255 263 266 267 266 266 270 271 274 274 277 277 275
207 206 203 196 194 195 195 198 200 202 205 205 208 214 218 223 227 228 233 239 242 243 245 246 244 246 247 245 250 250 254 259 261 261 265 266 267 269 270 273 277 277 277 276
Height
10726 10731 10737 10757 10768 10781 10797 10803 10811 10811 10816 10827 10836 10844 10849 10852 10857 10861 10870 10881 10888 10895 10902 10908 10911 10915 10922 10929 10935 10940 10945 10948 10953 10960 10963 10965 10967 10969 10972 10973 10975 10975 10975 10975
10709 10705 10717 10742 10755 10769 10781 10787 10794 10798 10802 10817 10825 10835 10840 10845 10847 10854 10860 10871 10881 10888 10895 10900 10904 10909 10914 10921 10927 10933 10937 10940 10946 10951 10953 10956 10961 10963 10964 10967 10968 10966 10966 10965
10692 10696 10712 10727 10748 10763 10769 10774 10784 10790 10795 10802 10811 10820 10835 10839 10843 10848 10853 10863 10872 10879 10885 10891 10896 10902 10908 10913 10921 10924 10927 10931 10937 10943 10947 10950 10953 10955 10957 10957 10957 10958 10958 10957
10666 10673 10682 10720 10733 10746 10758 10765 10774 10774 10777 10786 10795 10811 10827 10833 10836 10842 10846 10854 10862 10871 10878 10885 10892 10898 10902 10910 10914 10915 10920 10925 10929 10934 10939 10941 10944 10945 10948 10948 10947 10949 10950 10949
10638 10657 10686 10707 10723 10733 10743 10751 10750 10757 10761 10769 10794 10800 10814 10818 10826 10834 10840 10848 10855 10862 10871 10878 10884 10892 10897 10903 10905 10909 10912 10916 10922 10927 10930 10932 10934 10936 10939 10940 10940 10941 10941 10940
10623 10642 10672 10686 10696 10703 10714 10729 10731 10739 10750 10763 10781 10788 10790 10805 10827 10835 10838 10843 10849 10854 10859 10866 10874 10880 10885 10892 10895 10901 10902 10907 10915 10919 10920 10921 10924 10927 10928 10930 10932 10931 10930 10928
10609 10628 10643 10653 10663 10675 10694 10695 10711 10730 10738 10752 10759 10766 10788 10805 10818 10824 10830 10835 10840 10844 10849 10853 10859 10868 10877 10879 10885 10885 10892 10900 10906 10909 10910 10912 10915 10917 10918 10920 10922 10921 10919 10918
10590 10606 10607 10632 10646 10659 10670 10687 10703 10722 10736 10750 10762 10776 10787 10798 10805 10810 10817 10826 10832 10837 10840 10846 10852 10857 10862 10868 10871 10875 10886 10889 10892 10895 10898 10900 10903 10906 10908 10911 10912 10910 10911 10910
10561 10586 10591 10605 10620 10645 10665 10679 10695 10713 10731 10743 10760 10773 10781 10788 10785 10791 10805 10817 10822 10826 10832 10838 10842 10847 10851 10854 10861 10865 10871 10874 10879 10883 10886 10889 10892 10895 10899 10900 10901 10901 10901 10900
10554 10577 10572 10579 10603 10627 10653 10675 10695 10712 10726 10738 10751 10759 10762 10759 10770 10782 10793 10804 10813 10817 10822 10827 10833 10837 10841 10846 10850 10854 10857 10863 10868 10872 10875 10879 10882 10885 10888 10889 10889 10891 10890 10889
10560 10572 10581 10588 10616 10632 10655 10670 10687 10704 10719 10729 10738 10744 10753 10757 10764 10775 10780 10789 10798 10806 10813 10820 10821 10826 10831 10834 10839 10843 10847 10851 10855 10859 10863 10867 10870 10872 10874 10876 10877 10878 10879 10879
10545 10554 10571 10593 10609 10626 10648 10667 10679 10689 10700 10708 10720 10730 10738 10744 10752 10760 10768 10774 10784 10793 10803 10809 10814 10817 10820 10823 10829 10833 10838 10841 10844 10848 10851 10854 10857 10860 10862 10862 10865 10867 10866 10865
10542 10548 10561 10582 10594 10614 10633 10650 10662 10673 10685 10694 10706 10717 10724 10733 10740 10746 10755 10762 10769 10778 10789 10797 10800 10803 10809 10812 10815 10820 10823 10826 10832 10834 10840 10842 10845 10846 10846 10849 10850 10851 10851 10850
10506 10514 10537 10555 10572 10582 10605 10624 10640 10652 10664 10682 10694 10699 10705 10715 10722 10729 10737 10747 10756 10765 10772 10776 10782 10789 10795 10797 10799 10804 10808 10812 10818 10819 10822 10828 10828 10830 10831 10832 10835 10837 10837 10837
10477 10493 10520 10526 10551 10573 10587 10602 10619 10631 10645 10662 10670 10681 10690 10698 10704 10711 10719 10731 10741 10750 10754 10756 10764 10771 10776 10781 10784 10789 10795 10799 10803 10804 10808 10813 10815 10817 10817 10817 10818 10821 10821 10821
10469 10487 10497 10520 10544 10560 10577 10591 10604 10617 10631 10641 10646 10659 10668 10684 10687 10695 10703 10715 10726 10734 10742 10745 10749 10752 10756 10762 10768 10773 10778 10782 10787 10789 10792 10795 10797 10799 10800 10801 10802 10802 10803 10804
10467 10482 10493 10511 10527 10541 10556 10570 10588 10604 10616 10624 10636 10645 10659 10666 10665 10672 10685 10700 10709 10718 10723 10727 10734 10737 10741 10746 10750 10755 10758 10761 10768 10773 10774 10776 10778 10779 10781 10783 10783 10785 10787 10782
10452 10463 10477 10494 10510 10525 10538 10554 10571 10582 10595 10611 10622 10627 10636 10640 10648 10661 10671 10684 10691 10698 10705 10710 10715 10720 10727 10730 10736 10739 10741 10743 10747 10750 10749 10755 10758 10759 10760 10760 10762 10763 10765 10764
10439 10443 10456 10472 10488 10507 10521 10535 10551 10571 10585 10593 10597 10610 10622 10629 10633 10650 10664 10671 10669 10677 10682 10689 10695 10701 10705 10710 10715 10718 10722 10726 10725 10729 10732 10734 10735 10736 10736 10739 10742 10743 10744 10745
10435 10441 10449 10459 10473 10492 10509 10525 10540 10557 10569 10576 10586 10598 10606 10612 10617 10635 10641 10648 10656 10661 10666 10673 10677 10682 10685 10689 10693 10698 10700 10705 10707 10707 10709 10713 10715 10714 10718 10717 10719 10721 10722 10722
10437 10439 10444 10452 10463 10476 10493 10510 10530 10543 10551 10560 10571 10580 10587 10595 10606 10614 10622 10627 10636 10641 10645 10650 10656 10658 10662 10667 10671 10675 10676 10673 10679 10682 10684 10690 10692 10691 10690 10692 10694 10696 10695 10696
10442 10444 10446 10450 10457 10467 10479 10496 10514 10528 10539 10551 10560 10566 10571 10578 10587 10595 10605 10606 10614 10618 10622 10625 10631 10635 10640 10646 10647 10647 10650 10653 10653 10656 10656 10660 10664 10666 10669 10668 10669 10668 10670 10669
10446 10450 10454 10455 10457 10463 10472 10484 10498 10513 10527 10538 10546 10552 10559 10570 10577 10572 10581 10584 10587 10596 10600 10604 10608 10613 10618 10618 10620 10623 10624 10627 10624 10626 10635 10637 10635 10640 10644 10645 10644 10641 10642 10642
10443 10443 10448 10453 10457 10461 10468 10475 10485 10496 10508 10519 10525 10530 10540 10539 10552 10554 10558 10559 10565 10571 10573 10579 10583 10589 10592 10590 10592 10593 10592 10595 10598 10604 10605 10608 10607 10615 10619 10620 10619 10619 10618 10615
10440 10438 10441 10444 10448 10455 10460 10466 10471 10477 10484 10496 10504 10509 10513 10521 10529 10530 10531 10537 10544 10549 10553 10554 10562 10566 10567 10570 10570 10570 10569 10572 10575 10578 10583 10586 10589 10590 10591 10595 10596 10594 10594 10592
10432 10435 10435 10437 10440 10444 10448 10454 10459 10464 10469 10476 10482 10489 10495 10499 10502 10509 10514 10517 10522 10527 10530 10533 10537 10541 10544 10547 10551 10551 10549 10550 10554 10558 10560 10562 10564 10568 10568 10570 10572 10572 10572 10568
10417 10422 10428 10430 10431 10435 10437 10441 10444 10449 10456 10459 10465 10470 10474 10479 10483 10488 10492 10496 10501 10505 10509 10511 10515 10518 10521 10522 10526 10530 10530 10530 10531 10533 10535 10536 10537 10539 10544 10547 10546 10544 10543 10541